When you browse on this site, cookies collect data to enhance your experience and personalize the content and advertising you see.
Visit our Privacy Policy to learn more. By continuing to use the site, you agree to this use of cookies and data.
  • en France
  • Liste des pays
  • À 7 jours
  • Température de l'eau
  • Carte satellitaire
  • Carte météo
  • Widgets météo
  • user-avatar
    Se connecter

    Météo par heure à Shusha

    Ce jour, 22 Avril, Lundi

    Heure Température Précipitation Vent Pression Humidité
    00:00 +1°C° 0.3 mm 1 m/s 658 mmHg 94%
    01:00 +1°C° 0.1 mm 1 m/s 658 mmHg 94%
    02:00 +1°C° 0.1 mm 1 m/s 657 mmHg 94%
    03:00 0°C° 0.1 mm 1 m/s 657 mmHg 95%
    04:00 0°C° 0.1 mm 1 m/s 657 mmHg 94%
    05:00 +1°C° 0.1 mm 1 m/s 657 mmHg 93%
    06:00 +1°C° 0.1 mm 1 m/s 657 mmHg 92%
    07:00 +1°C° 0.2 mm 1 m/s 657 mmHg 89%
    08:00 +1°C° 0.2 mm 2 m/s 657 mmHg 85%
    09:00 +2°C° 0.2 mm 2 m/s 657 mmHg 82%
    10:00 +2°C° 0.3 mm 2 m/s 657 mmHg 80%
    11:00 +3°C° 0.3 mm 2 m/s 657 mmHg 78%
    12:00 +2°C° 0.3 mm 3 m/s 657 mmHg 76%
    13:00 +2°C° 0.6 mm 3 m/s 657 mmHg 78%
    14:00 +2°C° 0.6 mm 3 m/s 657 mmHg 79%
    15:00 +2°C° 0.6 mm 3 m/s 656 mmHg 81%
    16:00 +3°C° 1.1 mm 2 m/s 657 mmHg 84%
    17:00 +2°C° 1.1 mm 2 m/s 657 mmHg 87%
    18:00 +3°C° 1.1 mm 1 m/s 657 mmHg 91%
    19:00 +2°C° 0.9 mm 1 m/s 658 mmHg 92%
    20:00 +2°C° 0.9 mm 1 m/s 658 mmHg 93%
    21:00 +2°C° 0.9 mm 1 m/s 659 mmHg 94%
    22:00 +2°C° 0.8 mm 1 m/s 659 mmHg 94%
    23:00 +1°C° 0.8 mm 1 m/s 659 mmHg 93%

    Demain, 23 Avril, Mardi

    Heure Température Précipitation Vent Pression Humidité
    00:00 +1°C° 0.8 mm 1 m/s 660 mmHg 92%
    01:00 +1°C° 0.5 mm 1 m/s 660 mmHg 91%
    02:00 +1°C° 0.5 mm 1 m/s 660 mmHg 89%
    03:00 +1°C° 0.5 mm 1 m/s 660 mmHg 88%
    04:00 +1°C° 0.3 mm 1 m/s 660 mmHg 87%
    05:00 +1°C° 0.3 mm 1 m/s 661 mmHg 86%
    06:00 +1°C° 0.3 mm 1 m/s 661 mmHg 85%
    07:00 +2°C° 0.4 mm 1 m/s 662 mmHg 83%
    08:00 +3°C° 0.4 mm 1 m/s 662 mmHg 82%
    09:00 +4°C° 0.4 mm 1 m/s 662 mmHg 81%
    10:00 +3°C° 0.2 mm 2 m/s 663 mmHg 79%
    11:00 +3°C° 0.2 mm 3 m/s 663 mmHg 78%
    12:00 +4°C° 0.2 mm 3 m/s 663 mmHg 76%
    13:00 +4°C° 0.1 mm 3 m/s 663 mmHg 75%
    14:00 +4°C° 0.1 mm 3 m/s 663 mmHg 75%
    15:00 +5°C° 0.1 mm 3 m/s 662 mmHg 74%
    16:00 +4°C° 0.1 mm 3 m/s 662 mmHg 76%
    17:00 +5°C° 0.1 mm 2 m/s 662 mmHg 77%
    18:00 +4°C° 0.1 mm 2 m/s 662 mmHg 79%
    19:00 +3°C° 0 mm 2 m/s 663 mmHg 80%
    20:00 +2°C° 0 mm 2 m/s 663 mmHg 80%
    21:00 +2°C° 0 mm 1 m/s 663 mmHg 81%
    22:00 +2°C° 0 mm 1 m/s 663 mmHg 80%
    23:00 +1°C° 0 mm 1 m/s 663 mmHg 78%

    Après-demain, 24 Avril, Mercredi

    Heure Température Précipitation Vent Pression Humidité
    00:00 +1°C° 0 mm 1 m/s 663 mmHg 77%
    01:00 +1°C° 0 mm 1 m/s 663 mmHg 77%
    02:00 +1°C° 0 mm 1 m/s 663 mmHg 77%
    03:00 +2°C° 0 mm 1 m/s 663 mmHg 76%
    04:00 +2°C° 0 mm 1 m/s 664 mmHg 77%
    05:00 +2°C° 0 mm 1 m/s 664 mmHg 77%
    06:00 +2°C° 0 mm 1 m/s 664 mmHg 78%
    07:00 +4°C° 0 mm 1 m/s 665 mmHg 76%
    08:00 +5°C° 0 mm 1 m/s 665 mmHg 74%
    09:00 +5°C° 0 mm 2 m/s 665 mmHg 73%
    10:00 +6°C° 0 mm 2 m/s 665 mmHg 71%
    11:00 +6°C° 0 mm 2 m/s 665 mmHg 70%
    12:00 +7°C° 0 mm 2 m/s 664 mmHg 69%
    13:00 +7°C° 0.1 mm 2 m/s 664 mmHg 69%
    14:00 +7°C° 0.1 mm 2 m/s 663 mmHg 69%
    15:00 +8°C° 0.1 mm 2 m/s 663 mmHg 69%
    16:00 +7°C° 0.1 mm 2 m/s 663 mmHg 72%
    17:00 +8°C° 0.1 mm 1 m/s 663 mmHg 75%
    18:00 +7°C° 0.1 mm 1 m/s 662 mmHg 78%
    19:00 +6°C° 0 mm 1 m/s 662 mmHg 78%
    20:00 +5°C° 0 mm 1 m/s 662 mmHg 79%
    21:00 +4°C° 0 mm 1 m/s 662 mmHg 80%
    22:00 +4°C° 0 mm 1 m/s 663 mmHg 79%
    23:00 +4°C° 0 mm 1 m/s 663 mmHg 78%

    25 Avril, Jeudi

    Heure Température Précipitation Vent Pression Humidité
    00:00 +4°C° 0 mm 1 m/s 663 mmHg 77%
    01:00 +4°C° 0.1 mm 1 m/s 663 mmHg 79%
    02:00 +4°C° 0.1 mm 1 m/s 663 mmHg 80%
    03:00 +4°C° 0.1 mm 1 m/s 663 mmHg 82%
    04:00 +4°C° 0.2 mm 1 m/s 663 mmHg 82%
    05:00 +4°C° 0.2 mm 1 m/s 663 mmHg 83%
    06:00 +5°C° 0.2 mm 1 m/s 664 mmHg 83%
    07:00 +6°C° 0.1 mm 1 m/s 664 mmHg 79%
    08:00 +7°C° 0.1 mm 1 m/s 664 mmHg 74%
    09:00 +8°C° 0.1 mm 2 m/s 665 mmHg 69%
    10:00 +8°C° 0.1 mm 2 m/s 664 mmHg 69%
    11:00 +8°C° 0.1 mm 2 m/s 664 mmHg 68%
    12:00 +9°C° 0.1 mm 2 m/s 664 mmHg 67%
    13:00 +9°C° 0.3 mm 3 m/s 664 mmHg 67%
    14:00 +9°C° 0.3 mm 3 m/s 664 mmHg 67%
    15:00 +10°C° 0.3 mm 3 m/s 664 mmHg 67%
    16:00 +9°C° 0.5 mm 2 m/s 664 mmHg 72%
    17:00 +8°C° 0.5 mm 2 m/s 663 mmHg 76%
    18:00 +8°C° 0.5 mm 1 m/s 663 mmHg 80%
    19:00 +7°C° 0.4 mm 1 m/s 664 mmHg 83%
    20:00 +7°C° 0.4 mm 1 m/s 664 mmHg 87%
    21:00 +6°C° 0.4 mm 1 m/s 664 mmHg 90%
    22:00 +5°C° 0.1 mm 1 m/s 664 mmHg 89%
    23:00 +5°C° 0.1 mm 1 m/s 664 mmHg 88%

    26 Avril, Vendredi

    Heure Température Précipitation Vent Pression Humidité
    00:00 +5°C° 0.1 mm 1 m/s 664 mmHg 87%
    01:00 +5°C° 0 mm 1 m/s 664 mmHg 86%
    02:00 +4°C° 0 mm 1 m/s 663 mmHg 84%
    03:00 +4°C° 0 mm 1 m/s 663 mmHg 82%
    04:00 +4°C° 0 mm 1 m/s 663 mmHg 80%
    05:00 +5°C° 0 mm 1 m/s 664 mmHg 79%
    06:00 +5°C° 0 mm 1 m/s 664 mmHg 77%
    07:00 +7°C° 0 mm 1 m/s 664 mmHg 73%
    08:00 +8°C° 0 mm 1 m/s 664 mmHg 70%
    09:00 +10°C° 0 mm 1 m/s 665 mmHg 66%
    10:00 +9°C° 0.1 mm 2 m/s 665 mmHg 65%
    11:00 +10°C° 0.1 mm 2 m/s 664 mmHg 63%
    12:00 +11°C° 0.1 mm 3 m/s 664 mmHg 61%
    13:00 +11°C° 0.4 mm 3 m/s 664 mmHg 62%
    14:00 +11°C° 0.4 mm 3 m/s 663 mmHg 63%
    15:00 +11°C° 0.4 mm 3 m/s 663 mmHg 64%
    16:00 +10°C° 0.4 mm 2 m/s 663 mmHg 69%
    17:00 +9°C° 0.4 mm 2 m/s 663 mmHg 73%
    18:00 +10°C° 0.4 mm 1 m/s 663 mmHg 77%
    19:00 +9°C° 0.2 mm 1 m/s 663 mmHg 81%
    20:00 +8°C° 0.2 mm 1 m/s 663 mmHg 84%
    21:00 +6°C° 0.2 mm 0 m/s 663 mmHg 88%
    22:00 +6°C° 0 mm 1 m/s 663 mmHg 87%
    23:00 +6°C° 0 mm 1 m/s 663 mmHg 87%

    27 Avril, Samedi

    Heure Température Précipitation Vent Pression Humidité
    00:00 +6°C° 0 mm 1 m/s 662 mmHg 87%
    01:00 +5°C° 0 mm 1 m/s 662 mmHg 86%
    02:00 +5°C° 0 mm 1 m/s 662 mmHg 85%
    03:00 +4°C° 0 mm 1 m/s 662 mmHg 84%
    04:00 +5°C° 0 mm 1 m/s 662 mmHg 82%
    05:00 +5°C° 0 mm 1 m/s 662 mmHg 80%
    06:00 +5°C° 0 mm 1 m/s 662 mmHg 79%
    07:00 +7°C° 0 mm 1 m/s 662 mmHg 74%
    08:00 +9°C° 0 mm 1 m/s 663 mmHg 69%
    09:00 +9°C° 0 mm 2 m/s 663 mmHg 64%
    10:00 +10°C° 0 mm 2 m/s 663 mmHg 62%
    11:00 +12°C° 0 mm 2 m/s 663 mmHg 60%
    12:00 +13°C° 0 mm 2 m/s 662 mmHg 58%
    13:00 +13°C° 0.1 mm 2 m/s 662 mmHg 59%
    14:00 +13°C° 0.1 mm 2 m/s 662 mmHg 60%
    15:00 +13°C° 0.1 mm 2 m/s 661 mmHg 60%
    16:00 +13°C° 0.4 mm 2 m/s 661 mmHg 65%
    17:00 +12°C° 0.4 mm 2 m/s 661 mmHg 69%
    18:00 +11°C° 0.4 mm 1 m/s 661 mmHg 74%
    19:00 +10°C° 0.3 mm 1 m/s 661 mmHg 76%
    20:00 +9°C° 0.3 mm 1 m/s 661 mmHg 78%
    21:00 +7°C° 0.3 mm 1 m/s 661 mmHg 80%
    22:00 +7°C° 0 mm 1 m/s 661 mmHg 79%
    23:00 +7°C° 0 mm 1 m/s 661 mmHg 77%
    Voir plus